SCP
9 8 7 8 7 6 5 5 4 3 3 3 3 2 2 2 1 1 2 2 2 2 2 2 2 2 2 2 2 2 2 2 2 2 2 1 1 1 1 1 1 1 1
8 7 6 8 8 7 6 5 4 3 4 4 3 2 2 2 2 1 1 2 2 2 2 2 1 1 1 1 2 2 2 2 2 2 2 1 1 1 1 1 1 1 1
8 6 6 8 8 7 7 6 4 4 4 4 3 2 2 2 2 1 1 1 1 2 2 1 1 1 1 1 1 1 1 1 1 1 1 1 1 0 0 1 1 1 1
7 6 5 7 7 7 7 7 5 4 4 3 3 3 2 2 1 1 1 1 2 2 2 2 2 1 1 1 1 1 1 1 1 1 1 1 1 0 0 0 1 1 1
6 6 5 6 7 9 9 8 6 4 3 3 3 3 2 2 1 1 1 1 2 2 2 2 2 2 1 1 1 1 1 1 1 1 1 1 1 1 1 1 1 1 1
6 6 6 7 9 10 10 9 7 5 3 3 3 3 3 2 2 1 1 1 2 2 2 2 2 2 1 1 1 1 1 1 1 1 1 1 1 1 1 1 1 0 0
5 6 8 10 12 11 10 9 8 5 4 4 4 4 3 2 2 2 1 1 1 2 2 2 2 2 1 1 1 1 1 1 1 1 1 0 0 0 0 0 0 0 0
5 6 10 13 13 11 10 10 8 6 5 4 4 4 3 3 2 2 2 1 1 1 1 1 2 2 1 1 1 1 1 1 1 1 1 0 0 0 0 0 0 0 0
4 5 10 14 14 12 11 11 9 6 5 5 5 4 4 3 2 2 2 1 1 1 1 1 1 1 1 1 1 1 1 1 1 0 0 0 0 0 0 0 0 0 0
4 4 8 12 13 12 12 11 8 5 4 4 4 4 4 3 3 2 2 1 1 1 1 1 1 1 1 1 1 1 1 0 0 0 0 0 0 0 0 0 0 0 0
5 5 6 9 11 12 12 10 7 5 4 3 3 4 4 4 3 2 2 1 1 1 1 1 1 1 1 1 1 1 0 0 0 0 0 0 0 0 0 0 0 0 0
7 7 7 8 10 12 11 8 6 5 4 3 3 3 4 4 3 3 2 1 1 1 1 1 1 1 1 1 1 0 0 0 0 0 0 0 0 0 0 0 0 0 0
7 7 7 8 10 11 9 6 5 4 4 3 3 3 3 4 3 2 2 1 1 1 1 1 1 1 1 1 0 0 0 0 0 0 0 0 0 0 0 0 0 0 0
7 7 7 8 9 9 9 9 7 4 4 3 3 3 3 3 3 2 2 1 1 1 1 1 1 1 1 1 0 0 0 0 0 0 0 0 0 0 0 0 0 0 0
5 5 6 6 7 7 10 14 10 5 4 4 3 3 3 3 3 3 2 2 1 1 1 1 1 1 0 0 0 0 0 0 0 0 0 0 0 0 0 0 0 0 0
3 3 3 4 6 6 12 17 12 5 4 4 4 3 3 3 3 3 3 2 1 1 1 1 0 0 0 0 0 0 0 0 0 0 0 0 0 0 0 0 0 0 0
2 2 3 4 6 8 13 17 11 6 5 5 4 4 3 3 3 4 3 2 1 1 1 0 0 0 0 0 0 0 0 0 0 0 0 0 0 0 0 0 0 0 0
3 3 4 5 8 11 12 12 9 7 6 6 5 4 4 3 3 4 3 2 1 1 1 0 0 0 0 0 0 0 0 0 0 0 0 0 0 0 0 0 0 0 0
5 7 7 7 9 12 11 10 9 9 8 7 6 5 4 3 3 3 3 2 1 1 1 0 0 0 0 0 0 0 0 0 0 0 0 0 0 0 0 0 0 0 0
11 11 10 8 9 11 11 11 11 10 9 7 6 4 4 3 3 3 2 2 1 1 1 0 0 0 0 0 0 0 0 0 0 0 0 0 0 0 0 0 0 0 0
13 12 10 8 8 10 11 12 11 10 9 7 5 4 3 3 3 2 2 1 1 1 1 0 0 0 0 0 0 0 0 0 0 0 0 0 0 0 0 0 0 0 0
11 10 9 8 8 10 11 11 10 10 9 7 5 4 3 3 3 2 2 1 1 1 1 0 0 0 0 0 0 0 0 0 0 0 0 0 0 0 0 0 0 0 0
9 9 9 9 8 9 11 11 11 11 10 7 5 4 3 3 2 2 2 2 2 1 1 0 0 0 0 0 0 0 0 0 0 0 0 0 0 0 0 0 0 0 0
7 8 7 7 7 9 11 11 12 11 9 7 5 4 3 2 2 2 2 2 2 1 1 0 0 0 0 0 0 0 0 0 0 0 0 0 0 0 0 0 0 0 0
4 4 3 3 5 8 11 12 12 11 9 6 4 4 3 3 2 2 2 2 2 1 1 0 0 0 0 0 0 0 0 0 0 0 0 0 0 0 0 0 0 0 0
1 1 1 1 4 8 12 13 13 11 8 6 4 3 3 3 2 2 2 2 1 1 0 0 0 0 0 0 0 0 0 0 0 0 0 0 0 0 0 0 0 0 0
Wind_Speed
6 7 7 8 8 7 8 8 7 6 5 3 3 2 2 2 1 1 2 2 2 2 2 2 2 2 2 2 2 1 1 0 1 2 2 2 1 0 1 2 2 3 4
6 6 6 6 7 8 8 7 7 6 5 4 3 2 2 1 1 1 1 1 1 2 2 2 2 2 2 2 2 2 1 0 1 3 2 2 3 2 1 1 2 2 2
11 9 8 7 7 7 8 8 7 7 6 5 3 3 2 2 1 0 0 0 1 1 2 2 2 2 2 2 2 2 3 2 0 2 3 3 2 2 2 1 1 1 1
9 10 10 9 9 8 7 7 6 6 5 6 5 5 4 2 2 1 1 1 1 1 1 2 2 2 2 2 2 2 2 3 1 0 1 2 3 2 1 2 2 1 2
11 11 11 11 10 9 8 7 6 5 5 5 5 5 3 2 1 1 1 0 1 0 1 1 2 2 2 2 2 2 2 2 2 2 1 1 1 2 2 2 2 2 1
9 9 8 8 8 7 7 7 7 5 4 5 5 5 4 3 3 2 1 1 1 1 0 1 1 2 2 2 2 2 2 2 2 2 2 2 2 2 2 2 2 2 2
9 9 8 7 7 8 7 7 7 5 5 5 5 5 5 5 5 3 3 2 1 1 2 1 1 1 2 2 2 2 1 1 1 2 1 2 2 2 2 2 2 1 1
7 8 10 9 8 8 8 7 7 5 5 5 4 4 4 3 3 3 3 3 2 2 2 2 2 2 2 2 2 2 1 1 1 1 1 1 1 1 2 3 3 1 1
5 6 7 8 9 8 7 7 7 5 4 5 4 3 3 3 3 3 2 2 2 2 2 2 2 1 2 2 2 2 1 1 1 1 0 0 1 0 1 2 3 3 2
5 5 7 8 7 8 7 6 6 5 4 3 3 3 3 3 3 3 2 2 1 2 2 2 2 2 2 2 2 2 1 1 1 1 1 0 0 0 0 1 1 2 3
7 5 5 7 7 7 7 6 5 5 3 3 2 3 3 2 3 2 3 2 1 2 2 3 2 2 1 1 2 2 2 2 1 1 1 0 0 0 0 1 1 1 2
6 6 6 7 7 7 7 7 6 5 5 4 3 3 2 2 2 2 2 2 2 2 2 3 2 2 1 1 2 2 2 2 2 1 1 1 1 0 0 1 1 1 2
6 4 4 6 7 7 7 7 6 6 4 4 3 3 3 2 3 2 2 2 2 2 2 2 2 2 1 1 1 1 2 2 2 2 2 2 1 1 0 1 1 1 1
6 4 4 5 7 7 7 7 7 6 5 4 4 4 3 3 3 3 2 2 2 2 2 2 2 2 2 1 1 1 1 1 1 1 2 2 2 2 2 1 1 2 2
5 4 3 4 6 6 5 6 6 6 5 5 5 4 3 3 2 2 2 2 2 3 2 2 2 1 2 2 2 1 1 1 0 0 1 1 2 3 3 2 2 2 2
6 5 4 5 6 7 6 5 6 6 6 6 5 4 3 3 2 2 3 3 2 2 3 2 2 2 1 2 2 2 1 1 1 1 0 0 0 1 2 2 3 4 4
5 5 5 6 6 7 7 7 6 5 6 5 5 4 4 3 3 3 3 3 3 2 2 2 2 2 1 2 3 3 2 1 1 1 1 0 1 1 1 1 2 1 2
4 4 5 5 5 4 5 6 5 6 6 5 4 4 4 3 3 3 3 3 2 3 2 2 2 2 1 2 3 3 2 2 1 1 2 2 1 1 2 2 1 1 0
3 3 5 5 5 5 6 6 5 5 5 5 5 5 5 4 3 3 3 2 2 2 2 2 2 2 1 2 3 3 2 2 1 1 1 1 1 2 3 3 2 0 2
2 3 3 3 4 4 5 6 6 6 6 5 5 5 5 4 4 3 3 2 3 2 2 2 2 2 2 2 4 4 2 2 1 1 1 1 1 2 3 3 2 1 2
2 4 4 4 4 4 5 6 5 6 5 5 5 5 5 4 4 2 2 3 2 2 2 2 1 2 2 2 4 4 2 2 1 0 0 1 1 1 1 2 2 3 2
2 4 4 3 2 3 5 6 5 5 4 5 5 5 4 4 3 3 2 2 3 3 2 2 1 1 1 2 2 3 3 3 2 1 1 1 1 1 1 0 1 1 0
3 2 3 3 1 2 5 6 5 5 5 5 5 4 4 3 3 3 3 3 3 2 2 2 2 1 0 1 2 2 2 2 1 1 1 1 1 1 1 1 1 0 1
2 2 3 2 1 2 3 4 4 4 5 5 4 4 4 3 2 2 3 3 3 3 3 3 2 1 1 0 0 0 0 1 1 0 1 1 1 1 1 1 1 0 1
1 2 3 3 3 2 3 3 4 5 5 4 3 3 3 3 3 1 1 3 3 5 5 4 4 3 3 4 4 3 1 1 1 1 2 2 2 2 2 1 1 1 0
2 2 1 2 2 2 2 3 4 5 5 4 3 3 3 3 3 2 1 2 1 3 5 5 5 4 5 5 5 5 3 2 3 3 1 0 0 1 1 1 1 0 1
Wind_Direction
161 154 150 148 143 143 140 140 137 142 138 136 135 140 154 148 138 162 182 175 165 156 150 154 163 157 159 173 166 149 133 130 104 84 29 357 345 202 193 186 181 203 205
142 147 145 146 152 154 149 143 144 147 148 150 147 146 142 152 165 168 155 154 152 161 156 155 170 164 157 152 151 148 142 158 114 122 101 10 348 333 293 221 193 203 199
162 161 158 157 155 157 159 155 155 151 148 140 125 118 89 69 57 25 345 272 177 174 156 163 165 166 160 172 171 157 154 167 176 133 138 146 214 294 320 287 233 203 195
169 165 163 162 162 163 157 149 152 148 148 145 143 145 149 164 198 191 204 258 230 200 183 165 161 164 163 163 179 165 161 155 174 207 153 166 161 158 289 319 314 267 216
174 169 168 168 165 159 155 147 142 145 149 150 152 153 156 173 162 139 137 230 264 235 166 158 145 144 154 161 166 159 158 166 177 181 172 154 151 156 165 249 298 318 292
170 165 163 156 153 151 149 143 141 146 150 149 150 154 157 150 142 146 165 214 256 267 235 159 143 147 152 154 154 151 152 166 170 170 167 165 176 193 181 206 237 257 280
163 157 154 151 150 149 149 150 153 154 153 150 153 160 161 160 166 174 182 194 209 231 230 190 159 160 161 153 146 136 135 144 147 162 171 183 203 191 173 171 203 236 284
159 162 160 154 155 158 155 153 156 158 162 160 166 163 160 166 172 176 180 191 204 209 201 177 166 166 161 153 138 124 137 132 142 145 166 188 233 189 169 169 164 177 306
149 156 158 156 156 157 159 159 157 157 157 165 163 158 157 158 163 173 171 181 192 180 165 164 166 155 145 144 135 127 141 137 146 160 166 188 266 208 174 160 164 165 186
146 154 165 161 161 162 159 150 149 155 151 153 169 159 159 159 156 151 156 160 153 143 146 147 150 154 152 146 137 141 150 130 140 145 122 153 308 23 100 150 160 160 161
161 157 162 159 156 151 151 148 144 135 135 160 163 142 150 151 146 147 163 163 154 145 153 162 154 159 159 150 142 158 151 144 142 141 136 181 142 87 32 101 119 145 150
154 146 149 153 147 148 152 153 150 153 165 167 149 147 145 146 147 149 156 152 151 155 153 147 140 145 148 154 156 174 165 158 165 175 158 215 176 133 135 113 122 149 153
137 132 131 151 155 158 161 161 162 168 169 157 152 150 153 160 164 159 153 148 146 149 143 139 138 142 146 164 176 168 164 172 185 184 185 209 168 174 167 120 138 153 132
142 133 135 160 165 164 165 169 171 173 166 164 165 166 178 184 178 164 157 152 147 144 139 134 141 151 151 131 129 136 148 159 200 209 198 189 174 186 182 167 171 148 122
147 154 161 155 159 160 168 176 177 174 167 164 168 181 183 178 170 161 155 147 141 138 138 126 120 120 121 117 115 119 117 124 149 273 196 173 167 176 180 175 169 150 139
170 175 173 163 162 168 173 181 180 177 165 162 171 176 171 169 173 165 150 141 135 129 124 122 120 110 115 125 117 109 112 116 137 170 224 169 126 161 163 151 149 156 161
178 183 179 176 174 174 173 179 184 170 161 163 166 167 169 170 176 163 144 147 149 134 123 129 126 131 145 130 122 110 124 131 157 174 175 147 53 105 128 94 85 109 174
194 193 181 178 176 169 165 166 164 163 163 162 163 166 162 159 161 149 149 154 157 154 149 154 153 143 132 127 132 112 102 105 119 153 165 165 186 173 150 132 93 32 295
194 192 176 170 166 163 159 153 156 158 159 164 169 168 162 160 161 165 164 167 156 152 155 164 156 142 153 144 128 114 105 97 71 59 87 146 171 189 154 127 126 37 324
150 146 148 142 151 163 155 152 161 162 168 171 170 166 163 165 171 178 176 170 159 159 159 153 155 153 153 149 130 122 116 104 60 20 16 43 166 185 168 149 153 188 263
162 146 146 155 169 168 155 155 157 168 174 167 162 162 166 171 172 171 169 158 146 136 141 137 131 132 135 142 135 133 133 144 134 88 352 341 21 98 152 158 175 216 222
119 136 144 162 171 162 152 157 168 171 163 160 163 168 172 176 163 152 148 143 144 137 132 120 97 81 108 122 144 135 135 145 151 186 226 277 313 351 314 241 237 234 187
129 123 137 143 156 162 157 163 180 169 160 159 163 166 169 168 158 156 158 156 154 149 152 148 152 166 110 120 135 143 143 148 153 201 230 264 278 337 336 293 275 116 103
138 131 129 137 189 182 161 167 174 165 157 163 167 165 162 161 160 162 166 163 169 166 167 175 184 194 186 188 117 170 187 133 90 50 346 6 35 21 349 348 10 100 164
121 137 148 167 196 179 156 165 165 156 155 163 169 171 167 165 161 158 175 175 189 184 177 187 185 180 203 223 196 170 184 182 160 91 52 39 27 15 359 349 333 329 30
99 94 115 146 175 163 159 170 166 159 158 168 181 182 171 166 161 146 83 39 146 183 190 192 186 202 205 192 190 194 200 190 154 114 107 218 280 269 271 269 287 285 227